Regional Weather Roundup
Issued by NWS

Home | Current Version | Previous Version | Graphics & Text | Print | Product List | Glossary On
Versions: 1 2 3 4 5 6 7 8 9 10 11 12 13 14 15 16 17 18 19 20 21 22 23 24 25 26 27 28 29 30 31 32 33 34 35 36 37 38 39 40 41 42 43 44 45 46 47 48 49 50
000
ASUS43 KOAX 261910
RWRNE

WEATHER ROUNDUP FOR NEBRASKA
NATIONAL WEATHER SERVICE OMAHA NE
100 PM CST WED NOV 26 2014

NOTES: SATELLITE DATA IS BEING USED TO AUGMENT CLOUD COVER ABOVE
       12000 FEET.
       "FAIR" INDICATES FEW OR NO CLOUDS BELOW 12,000 FEET WITH NO
       SIGNIFICANT WEATHER AND/OR OBSTRUCTIONS TO VISIBILITY.

  * THESE STATIONS DO NOT REPORT WEATHER SUCH AS RAIN...SNOW OR FOG.

NEZ001>004-019>022-054>056-262000-
NEBRASKA PANHANDLE

CITY           SKY/WX    TMP DP  RH WIND       PRES   REMARKS
SCOTTSBLUFF    CLOUDY    31  26  82 W5        30.22F WCI  26
ALLIANCE       LGT SNOW  31  24  75 W6        30.21F WCI  25
CHADRON        CLOUDY    37  22  54 NE3       30.23F
KIMBALL        CLOUDY    28  25  89 W3        30.16F
SIDNEY         MIX PCPN  28  26  92 CALM      30.21F FOG
$$

NEZ057>060-069>072-079>082-262000-
SOUTHWEST NEBRASKA

CITY           SKY/WX    TMP DP  RH WIND       PRES   REMARKS
NORTH PLATTE   PTSUNNY   34  19  54 N9        30.25  WCI  27
IMPERIAL       CLOUDY    35  21  56 NW14      30.26F WCI  26
LEXINGTON      PTSUNNY   34  20  56 N15G25    30.25S WCI  24
MCCOOK         CLOUDY    37  19  48 N17G23    30.27R WCI  27
OGALLALA       CLOUDY    34  23  64 NW8       30.24F WCI  27
$$

NEZ005>010-023>029-035>040-094-262000-
NORTH CENTRAL NEBRASKA

CITY           SKY/WX    TMP DP  RH WIND       PRES   REMARKS
VALENTINE      CLOUDY    26  17  68 N9        30.28F WCI  17
AINSWORTH      CLOUDY    24  17  75 NW12      30.27F WCI  13
BROKEN BOW     CLOUDY    31  19  61 N18       30.25S WCI  19
O`NEILL        CLOUDY    25  20  81 NW23      30.26S WCI  10
ORD            CLOUDY    27  17  66 N20       30.25R WCI  13
THEDFORD       CLOUDY    28  21  75 NW10      30.26F WCI  19
$$

NEZ041-046>049-061>064-073>077-083>087-262000-
SOUTH CENTRAL NEBRASKA

CITY           SKY/WX    TMP DP  RH WIND       PRES   REMARKS
GRAND ISLAND   CLOUDY    30  19  63 N22G36    30.23R WCI  17
AURORA         CLOUDY    30  20  65 N22G32    30.22R WCI  17
HASTINGS       CLOUDY    30  19  63 N24G31    30.22R WCI  16
HEBRON         CLOUDY    32  20  61 N21G26    30.19R WCI  20
HOLDREGE       CLOUDY    32  19  59 N21G26    30.24R WCI  20
KEARNEY *      CLOUDY    30  18  59 NW23G31   30.24S WCI  17
YORK           CLOUDY    28  19  69 N22G31    30.19S WCI  15
$$

NEZ011>018-030>034-042>045-262000-
NORTHEAST NEBRASKA

CITY           SKY/WX    TMP DP  RH WIND       PRES   REMARKS
NORFOLK        CLOUDY    23  17  78 N25G32    30.20R WCI   7
ALBION         CLOUDY    28  19  69 NW22G29   30.23R WCI  13
BLAIR          CLOUDY    30  22  72 N22G40    30.11R WCI  17
COLUMBUS *     CLOUDY    25  16  68 N21G28    30.23R WCI  10
FREMONT        CLOUDY    30  23  75 N21G33    30.17R WCI  17
TEKAMAH        CLOUDY    31  22  69 N30G36    30.15R WCI  16
WAYNE          CLOUDY    23  19  83 N23G32    30.21R WCI   8
$$

NEZ050>053-065>068-078-088>093-262000-
SOUTHEAST NEBRASKA

CITY           SKY/WX    TMP DP  RH WIND       PRES   REMARKS
LINCOLN        CLOUDY    31  21  66 NW18      30.18R WCI  19
OMAHA EPPLEY   CLOUDY    30  24  78 N31G41    30.12R WCI  15
BEATRICE       CLOUDY    31  24  75 NW24G33   30.15R WCI  17
FALLS CITY     CLOUDY    35  28  75 NW22G33   30.05R WCI  23
NEBRASKA CITY  CLOUDY    32  24  73 N29       30.08R WCI  18
PLATTSMOUTH    CLOUDY    31  24  75 N20G31    30.09R WCI  18
$$

NEZ044-045-051>053-067-262000-
OMAHA AREA

CITY           SKY/WX    TMP DP  RH WIND       PRES   REMARKS
OMAHA EPPLEY   CLOUDY    30  24  78 N31G41    30.12R WCI  15
BLAIR          CLOUDY    30  22  72 N22G40    30.11R WCI  17
FREMONT        CLOUDY    30  23  75 N21G33    30.17R WCI  17
MILLARD        CLOUDY    31  23  71 NW23G30   30.13R WCI  18
OFFUTT AFB     CLOUDY    31  23  74 NW26G38   30.11R WCI  16
PLATTSMOUTH    CLOUDY    31  24  75 N20G31    30.09R WCI  18
WAHOO          CLOUDY    30  23  73 N29G38    30.15R WCI  15
$$



USA.gov is the U.S. government's official web portal to all federal, state and local government web resources and services.